When you browse on this site, cookies collect data to enhance your experience and personalize the content and advertising you see.
Visit our Privacy Policy to learn more. By continuing to use the site, you agree to this use of cookies and data.
  • In Austria
  • List of Countries
  • For 7 days
  • Water Temperature
  • Satellite Maps
  • Weather Map
  • News
  • Weather Widgets
  • user-avatar
    Login

    Hourly Weather Hrazdan

    Today, 25 June, Tuesday

    Time Temperature Precipitation Wind Pressure Humidity
    00:00 +16°C° 0.1 mm 2 mps 615 mmHg 80%
    01:00 +15°C° 0 mm 2 mps 614 mmHg 81%
    02:00 +15°C° 0 mm 2 mps 614 mmHg 82%
    03:00 +15°C° 0 mm 2 mps 614 mmHg 83%
    04:00 +16°C° 0 mm 2 mps 614 mmHg 83%
    05:00 +16°C° 0 mm 2 mps 615 mmHg 83%
    06:00 +18°C° 0 mm 1 mps 615 mmHg 83%
    07:00 +19°C° 0.1 mm 2 mps 616 mmHg 78%
    08:00 +20°C° 0.1 mm 2 mps 616 mmHg 74%
    09:00 +23°C° 0.1 mm 2 mps 617 mmHg 69%
    10:00 +24°C° 0.2 mm 2 mps 617 mmHg 66%
    11:00 +25°C° 0.2 mm 2 mps 617 mmHg 62%
    12:00 +26°C° 0.2 mm 2 mps 617 mmHg 59%
    13:00 +26°C° 0.3 mm 2 mps 617 mmHg 60%
    14:00 +26°C° 0.3 mm 3 mps 617 mmHg 61%
    15:00 +26°C° 0.3 mm 3 mps 617 mmHg 62%
    16:00 +25°C° 0.5 mm 3 mps 616 mmHg 67%
    17:00 +24°C° 0.5 mm 3 mps 616 mmHg 71%
    18:00 +22°C° 0.5 mm 3 mps 616 mmHg 76%
    19:00 +20°C° 0.2 mm 2 mps 615 mmHg 78%
    20:00 +19°C° 0.2 mm 2 mps 615 mmHg 79%
    21:00 +17°C° 0.2 mm 2 mps 615 mmHg 81%
    22:00 +17°C° 0 mm 2 mps 615 mmHg 81%
    23:00 +16°C° 0 mm 2 mps 615 mmHg 80%

    Tomorrow, 26 June, Wednesday

    Time Temperature Precipitation Wind Pressure Humidity
    00:00 +16°C° 0 mm 2 mps 615 mmHg 80%
    01:00 +16°C° 0 mm 2 mps 615 mmHg 80%
    02:00 +16°C° 0 mm 2 mps 615 mmHg 81%
    03:00 +15°C° 0 mm 2 mps 615 mmHg 81%
    04:00 +16°C° 0 mm 2 mps 615 mmHg 81%
    05:00 +17°C° 0 mm 2 mps 615 mmHg 80%
    06:00 +17°C° 0 mm 2 mps 616 mmHg 80%
    07:00 +19°C° 0 mm 2 mps 616 mmHg 74%
    08:00 +21°C° 0 mm 2 mps 617 mmHg 69%
    09:00 +23°C° 0 mm 2 mps 617 mmHg 63%
    10:00 +24°C° 0.3 mm 2 mps 617 mmHg 61%
    11:00 +25°C° 0.3 mm 2 mps 617 mmHg 59%
    12:00 +26°C° 0.3 mm 2 mps 617 mmHg 57%
    13:00 +26°C° 0.3 mm 2 mps 617 mmHg 57%
    14:00 +26°C° 0.3 mm 2 mps 617 mmHg 57%
    15:00 +26°C° 0.3 mm 2 mps 616 mmHg 57%
    16:00 +25°C° 0.5 mm 2 mps 616 mmHg 62%
    17:00 +24°C° 0.5 mm 2 mps 615 mmHg 67%
    18:00 +23°C° 0.5 mm 2 mps 615 mmHg 73%
    19:00 +20°C° 0.4 mm 2 mps 615 mmHg 75%
    20:00 +19°C° 0.4 mm 2 mps 614 mmHg 78%
    21:00 +17°C° 0.4 mm 2 mps 614 mmHg 81%
    22:00 +17°C° 0.3 mm 2 mps 614 mmHg 80%
    23:00 +16°C° 0.3 mm 2 mps 614 mmHg 80%

    Day after tomorrow, 27 June, Thursday

    Time Temperature Precipitation Wind Pressure Humidity
    00:00 +16°C° 0.3 mm 2 mps 614 mmHg 79%
    01:00 +16°C° 0.3 mm 2 mps 613 mmHg 81%
    02:00 +15°C° 0.3 mm 2 mps 613 mmHg 82%
    03:00 +15°C° 0.3 mm 2 mps 613 mmHg 83%
    04:00 +15°C° 0.3 mm 1 mps 613 mmHg 83%
    05:00 +16°C° 0.3 mm 1 mps 613 mmHg 82%
    06:00 +16°C° 0.3 mm 1 mps 613 mmHg 82%
    07:00 +18°C° 0.2 mm 2 mps 614 mmHg 78%
    08:00 +19°C° 0.2 mm 2 mps 614 mmHg 74%
    09:00 +20°C° 0.2 mm 2 mps 614 mmHg 70%
    10:00 +21°C° 0.8 mm 2 mps 614 mmHg 69%
    11:00 +23°C° 0.8 mm 2 mps 614 mmHg 69%
    12:00 +23°C° 0.8 mm 2 mps 614 mmHg 68%
    13:00 +23°C° 0.6 mm 2 mps 613 mmHg 69%
    14:00 +22°C° 0.6 mm 3 mps 613 mmHg 69%
    15:00 +22°C° 0.6 mm 3 mps 613 mmHg 70%
    16:00 +22°C° 0.6 mm 3 mps 613 mmHg 73%
    17:00 +21°C° 0.6 mm 3 mps 612 mmHg 76%
    18:00 +20°C° 0.6 mm 3 mps 612 mmHg 80%
    19:00 +19°C° 0.9 mm 3 mps 612 mmHg 82%
    20:00 +17°C° 0.9 mm 2 mps 612 mmHg 84%
    21:00 +16°C° 0.9 mm 2 mps 611 mmHg 86%
    22:00 +16°C° 0.2 mm 2 mps 611 mmHg 86%
    23:00 +15°C° 0.2 mm 2 mps 611 mmHg 86%

    28 June, Friday

    Time Temperature Precipitation Wind Pressure Humidity
    00:00 +15°C° 0.2 mm 2 mps 611 mmHg 87%
    01:00 +15°C° 0 mm 2 mps 610 mmHg 87%
    02:00 +14°C° 0 mm 2 mps 610 mmHg 88%
    03:00 +14°C° 0 mm 1 mps 610 mmHg 89%
    04:00 +14°C° 0.1 mm 1 mps 610 mmHg 89%
    05:00 +15°C° 0.1 mm 2 mps 610 mmHg 89%
    06:00 +15°C° 0.1 mm 2 mps 610 mmHg 89%
    07:00 +16°C° 0.4 mm 2 mps 610 mmHg 87%
    08:00 +17°C° 0.4 mm 2 mps 610 mmHg 84%
    09:00 +18°C° 0.4 mm 2 mps 610 mmHg 81%
    10:00 +19°C° 0.7 mm 2 mps 610 mmHg 78%
    11:00 +20°C° 0.7 mm 2 mps 610 mmHg 74%
    12:00 +21°C° 0.7 mm 2 mps 610 mmHg 71%
    13:00 +21°C° 0.9 mm 2 mps 610 mmHg 71%
    14:00 +21°C° 0.9 mm 2 mps 610 mmHg 71%
    15:00 +21°C° 0.9 mm 3 mps 610 mmHg 71%
    16:00 +20°C° 1.1 mm 3 mps 609 mmHg 76%
    17:00 +19°C° 1.1 mm 2 mps 609 mmHg 80%
    18:00 +18°C° 1.1 mm 2 mps 609 mmHg 85%
    19:00 +17°C° 1.4 mm 2 mps 609 mmHg 86%
    20:00 +16°C° 1.4 mm 1 mps 609 mmHg 87%
    21:00 +15°C° 1.4 mm 1 mps 609 mmHg 88%
    22:00 +15°C° 0.3 mm 1 mps 609 mmHg 88%
    23:00 +15°C° 0.3 mm 1 mps 609 mmHg 88%

    29 June, Saturday

    Time Temperature Precipitation Wind Pressure Humidity
    00:00 +14°C° 0.3 mm 1 mps 609 mmHg 88%
    01:00 +14°C° 0.3 mm 1 mps 608 mmHg 88%
    02:00 +14°C° 0.3 mm 1 mps 608 mmHg 88%
    03:00 +13°C° 0.3 mm 1 mps 608 mmHg 88%
    04:00 +14°C° 0 mm 1 mps 608 mmHg 87%
    05:00 +14°C° 0 mm 1 mps 608 mmHg 86%
    06:00 +15°C° 0 mm 1 mps 608 mmHg 85%
    07:00 +16°C° 0.1 mm 1 mps 609 mmHg 80%
    08:00 +19°C° 0.1 mm 1 mps 609 mmHg 76%
    09:00 +20°C° 0.1 mm 1 mps 609 mmHg 71%
    10:00 +21°C° 1 mm 1 mps 609 mmHg 70%
    11:00 +22°C° 1 mm 1 mps 609 mmHg 68%
    12:00 +22°C° 1 mm 1 mps 609 mmHg 66%
    13:00 +22°C° 1.4 mm 1 mps 609 mmHg 65%
    14:00 +23°C° 1.4 mm 1 mps 609 mmHg 64%
    15:00 +23°C° 1.4 mm 1 mps 609 mmHg 63%
    16:00 +21°C° 1.5 mm 2 mps 608 mmHg 69%
    17:00 +20°C° 1.5 mm 2 mps 608 mmHg 75%
    18:00 +19°C° 1.5 mm 2 mps 608 mmHg 81%
    19:00 +17°C° 1.8 mm 2 mps 608 mmHg 84%
    20:00 +16°C° 1.8 mm 2 mps 608 mmHg 87%
    21:00 +14°C° 1.8 mm 2 mps 608 mmHg 89%
    22:00 +14°C° 0.2 mm 2 mps 608 mmHg 89%
    23:00 +14°C° 0.2 mm 1 mps 608 mmHg 88%

    30 June, Sunday

    Time Temperature Precipitation Wind Pressure Humidity
    00:00 +13°C° 0.2 mm 1 mps 608 mmHg 87%
    01:00 +13°C° 0.1 mm 1 mps 608 mmHg 88%
    02:00 +13°C° 0.1 mm 1 mps 607 mmHg 89%
    03:00 +13°C° 0.1 mm 1 mps 607 mmHg 90%
    04:00 +13°C° 0.4 mm 1 mps 607 mmHg 89%
    05:00 +14°C° 0.4 mm 1 mps 608 mmHg 89%
    06:00 +14°C° 0.4 mm 1 mps 608 mmHg 88%
    07:00 +15°C° 0.4 mm 1 mps 608 mmHg 84%
    08:00 +18°C° 0.4 mm 1 mps 609 mmHg 80%
    09:00 +19°C° 0.4 mm 1 mps 609 mmHg 76%
    10:00 +19°C° 0.7 mm 2 mps 609 mmHg 74%
    11:00 +19°C° 0.7 mm 2 mps 609 mmHg 71%
    12:00 +20°C° 0.7 mm 2 mps 609 mmHg 68%
    13:00 +21°C° 0.7 mm 2 mps 609 mmHg 67%
    14:00 +21°C° 0.7 mm 2 mps 609 mmHg 66%
    15:00 +21°C° 0.7 mm 3 mps 609 mmHg 64%
    16:00 +20°C° 1.3 mm 2 mps 609 mmHg 71%
    17:00 +18°C° 1.3 mm 2 mps 608 mmHg 77%
    18:00 +17°C° 1.3 mm 2 mps 608 mmHg 84%
    19:00 +16°C° 1.1 mm 2 mps 608 mmHg 87%
    20:00 +15°C° 1.1 mm 2 mps 608 mmHg 89%
    21:00 +14°C° 1.1 mm 2 mps 609 mmHg 92%
    22:00 +13°C° 0 mm 2 mps 609 mmHg 92%
    23:00 +13°C° 0 mm 2 mps 609 mmHg 92%
    Show more